KD7CTY Weather Reports


time (UTC)temp
F
wind
direction
speed
knots
gust
knots
rain 1hr
in
rain 24hr
in
rain mn
in
humidity
%
barometer
mb
20260505040441 58 249 4.3 6.1 0.00 0.00 0.00 84 1009.6
20260505035937 59 283 5.2 7.0 0.00 0.00 0.00 84 1009.8
20260505035433 59 219 6.1 7.8 0.00 0.00 0.00 83 1009.7
20260505034931 59 226 7.8 8.7 0.00 0.00 0.00 82 1009.7
20260505034427 60 227 3.5 4.3 0.00 0.00 0.00 82 1009.4
20260505033924 60 257 2.6 4.3 0.00 0.00 0.00 81 1009.5
20260505033421 60 265 4.3 6.1 0.00 0.00 0.00 80 1009.6
20260505032919 61 278 6.1 7.0 0.00 0.00 0.00 79 1009.5
20260505032416 62 238 8.7 11.3 0.00 0.00 0.00 78 1009.4
20260505031912 62 275 3.5 5.2 0.00 0.00 0.00 77 1009.4
20260505031409 63 277 6.1 6.1 0.00 0.00 0.00 76 1009.2
20260505030906 64 230 4.3 6.1 0.00 0.00 0.00 75 1009.3
20260505030402 64 238 3.5 4.3 0.00 0.00 0.00 75 1009.2
20260505025857 65 166 2.6 2.6 0.00 0.00 0.00 74 1009.2
20260505025355 65 254 2.6 4.3 0.00 0.00 0.00 72 1009.1
20260505024854 66 251 4.3 6.1 0.00 0.00 0.00 71 1008.8
20260505024351 66 177 1.7 4.3 0.00 0.00 0.00 71 1009.0
20260505023848 67 222 4.3 6.1 0.00 0.00 0.00 69 1008.8
20260505023345 68 203 1.7 1.7 0.00 0.00 0.00 68 1009.0
20260505022842 68 248 4.3 5.2 0.00 0.00 0.00 67 1008.8
20260505022339 69 255 2.6 2.6 0.00 0.00 0.00 66 1008.7
20260505021836 69 308 1.7 2.6 0.00 0.00 0.00 64 1009.0
20260505021333 70 217 4.3 6.1 0.00 0.00 0.00 65 1008.8
20260505020829 70 211 3.5 4.3 0.00 0.00 0.00 64 1008.8
20260505020324 70 256 3.5 5.2 0.00 0.00 0.00 63 1008.8
20260505015821 72 219 2.6 2.6 0.00 0.00 0.00 63 1008.7
20260505015319 71 325 2.6 2.6 0.00 0.00 0.00 62 1008.7
20260505014816 72 321 3.5 4.3 0.00 0.00 0.00 62 1008.6
20260505014313 72 241 4.3 5.2 0.00 0.00 0.00 61 1008.8
20260505013809 72 268 3.5 4.3 0.00 0.00 0.00 62 1008.6
20260505013307 72 229 4.3 5.2 0.00 0.00 0.00 60 1009.0
20260505012805 73 223 3.5 4.3 0.00 0.00 0.00 59 1008.6
20260505012304 73 279 4.3 5.2 0.00 0.00 0.00 59 1008.7
20260505011758 73 244 6.1 7.0 0.00 0.00 0.00 60 1009.1
20260505011255 73 256 5.2 7.0 0.00 0.00 0.00 58 1009.1
20260505010750 73 305 5.2 7.0 0.00 0.00 0.00 57 1008.7
20260505010247 73 239 7.8 8.7 0.00 0.00 0.00 57 1008.8
20260505005743 73 255 7.8 9.6 0.00 0.00 0.00 57 1009.0
20260505005240 74 227 7.8 11.3 0.00 0.00 0.00 56 1009.0
20260505004738 74 210 4.3 6.1 0.00 0.00 0.00 56 1008.6
20260505004234 75 224 8.7 8.7 0.00 0.00 0.00 55 1009.0
20260505003731 75 204 4.3 5.2 0.00 0.00 0.00 55 1008.7
20260505003229 75 219 7.8 9.6 0.00 0.00 0.00 54 1008.6
20260505002725 75 234 7.0 9.6 0.00 0.00 0.00 54 1008.8
20260505002222 74 245 7.0 7.8 0.00 0.00 0.00 54 1008.7
20260505001720 75 210 6.1 7.0 0.00 0.00 0.00 54 1008.8
20260505001217 75 51 1.7 2.6 0.00 0.00 0.00 54 1008.8
20260505000714 76 277 4.3 6.1 0.00 0.00 0.00 52 1009.0
20260505000212 75 216 2.6 2.6 0.00 0.00 0.00 53 1009.0
20260504235708 75 214 4.3 5.2 0.00 0.00 0.00 54 1008.7
20260504235204 76 239 3.5 5.2 0.00 0.00 0.00 53 1009.1
20260504234702 76 243 7.8 8.7 0.00 0.00 0.00 52 1008.8
20260504234159 77 242 7.8 8.7 0.00 0.00 0.00 51 1008.6
20260504233655 78 216 5.2 7.0 0.00 0.00 0.00 52 1008.7
20260504233151 77 250 4.3 5.2 0.00 0.00 0.00 53 1008.6
20260504232649 78 216 6.1 7.0 0.00 0.00 0.00 53 1009.0
20260504232145 78 241 2.6 2.6 0.00 0.00 0.00 54 1008.8
20260504231642 77 198 4.3 6.1 0.00 0.00 0.00 50 1008.8
20260504231138 76 236 7.0 8.7 0.00 0.00 0.00 50 1008.7
20260504230635 77 223 2.6 2.6 0.00 0.00 0.00 54 1008.8
20260504230134 76 24 2.6 2.6 0.00 0.00 0.00 54 1009.1
20260504225632 75 247 6.1 7.0 0.00 0.00 0.00 55 1009.1
20260504225127 76 252 4.3 5.2 0.00 0.00 0.00 53 1009.2
20260504224624 76 209 2.6 2.6 0.00 0.00 0.00 56 1009.3
20260504224121 76 229 7.0 7.8 0.00 0.00 0.00 56 1009.3
20260504223618 78 255 3.5 4.3 0.00 0.00 0.00 52 1009.5
20260504223114 77 221 2.6 2.6 0.00 0.00 0.00 53 1009.4
20260504222611 76 231 3.5 4.3 0.00 0.00 0.00 56 1009.3
20260504222108 75 359 0.9 0.9 0.00 0.00 0.00 56 1009.5
20260504221605 75 252 8.7 11.3 0.00 0.00 0.00 56 1009.8
20260504221102 75 266 5.2 6.1 0.00 0.00 0.00 56 1009.4
20260504220558 75 204 4.3 6.1 0.00 0.00 0.00 56 1009.6
20260504220056 75 224 3.5 5.2 0.00 0.00 0.00 56 1009.7
20260504215552 75 252 6.1 6.1 0.00 0.00 0.00 59 1009.6
20260504215050 73 231 5.2 6.1 0.00 0.00 0.00 57 1009.7
20260504214545 74 242 7.0 7.0 0.00 0.00 0.00 58 1010.1
20260504214042 74 234 5.2 6.1 0.00 0.00 0.00 57 1009.7
20260504213538 75 241 5.2 6.1 0.00 0.00 0.00 57 1009.9
20260504213036 75 243 7.8 8.7 0.00 0.00 0.00 58 1009.8
20260504212531 74 297 1.7 2.6 0.00 0.00 0.00 57 1010.1
20260504212029 73 257 2.6 2.6 0.00 0.00 0.00 57 1009.9
20260504211526 73 293 3.5 5.2 0.00 0.00 0.00 58 1010.0
20260504211023 75 285 4.3 6.1 0.00 0.00 0.00 54 1010.0
20260504210520 75 286 4.3 7.8 0.00 0.00 0.00 55 1010.0
20260504210016 73 244 4.3 7.0 0.00 0.00 0.00 58 1010.1
20260504205515 75 239 3.5 4.3 0.00 0.00 0.00 56 1010.1
20260504205012 74 192 2.6 4.3 0.00 0.00 0.00 54 1010.1
20260504204510 74 256 1.7 1.7 0.00 0.00 0.00 56 1010.2
20260504204009 73 336 2.6 4.3 0.00 0.00 0.00 54 1010.2
20260504203506 73 179 3.5 5.2 0.00 0.00 0.00 57 1010.3
20260504203003 73 264 4.3 5.2 0.00 0.00 0.00 56 1010.0
20260504202459 74 291 5.2 7.0 0.00 0.00 0.00 61 1010.3
20260504201956 73 225 2.6 4.3 0.00 0.00 0.00 59 1010.0
20260504201453 72 200 1.7 2.6 0.00 0.00 0.00 61 1009.8
20260504200950 73 231 3.5 5.2 0.00 0.00 0.00 63 1009.9
20260504200447 72 189 4.3 5.2 0.00 0.00 0.00 64 1009.9
20260504195944 71 243 4.3 5.2 0.00 0.00 0.00 66 1010.2
20260504195439 71 218 7.0 7.8 0.00 0.00 0.00 66 1010.2
20260504194936 71 192 4.3 6.1 0.00 0.00 0.00 66 1010.3
20260504194432 71 247 7.8 8.7 0.00 0.00 0.00 66 1010.1
20260504193928 71 264 3.5 4.3 0.00 0.00 0.00 66 1010.4
20260504193426 70 215 2.6 2.6 0.00 0.00 0.00 67 1010.1
20260504192925 70 239 2.6 2.6 0.00 0.00 0.00 66 1010.3
20260504192421 70 226 4.3 5.2 0.00 0.00 0.00 65 1010.2
20260504191920 72 232 7.8 8.7 0.00 0.00 0.00 65 1010.2
20260504191418 71 215 4.3 5.2 0.00 0.00 0.00 66 1010.3
20260504190913 70 222 2.6 5.2 0.00 0.00 0.00 67 1010.0
20260504190409 70 273 4.3 5.2 0.00 0.00 0.00 64 1010.1
20260504185906 70 216 4.3 5.2 0.00 0.00 0.00 62 1010.2
20260504185403 70 6 0.9 1.7 0.00 0.00 0.00 66 1010.3
20260504184859 71 49 2.6 2.6 0.00 0.00 0.00 63 1010.3
20260504184355 71 53 1.7 2.6 0.00 0.00 0.00 62 1010.3
20260504183851 69 197 3.5 4.3 0.00 0.00 0.00 66 1010.4
20260504183349 71 33 1.7 1.7 0.00 0.00 0.00 60 1010.3
20260504182846 70 242 2.6 4.3 0.00 0.00 0.00 64 1010.4
20260504182343 70 168 3.5 4.3 0.00 0.00 0.00 62 1010.4
20260504181840 69 300 1.7 1.7 0.00 0.00 0.00 63 1010.4
20260504181337 69 225 2.6 5.2 0.00 0.00 0.00 64 1010.5
20260504180836 70 18 0.9 1.7 0.00 0.00 0.00 62 1010.5
20260504180334 69 19 0.0 0.9 0.00 0.00 0.00 64 1010.4
20260504175832 68 243 2.6 2.6 0.00 0.00 0.00 65 1010.6
20260504175328 68 179 2.6 4.3 0.00 0.00 0.00 63 1010.4
20260504174827 68 27 1.7 1.7 0.00 0.00 0.00 66 1010.8
20260504174324 68 197 3.5 5.2 0.00 0.00 0.00 64 1010.3
20260504173821 67 179 2.6 2.6 0.00 0.00 0.00 66 1010.4
20260504173317 67 243 7.0 7.8 0.00 0.00 0.00 67 1010.4
20260504172814 67 224 4.3 6.1 0.00 0.00 0.00 65 1010.3
20260504172311 67 225 3.5 4.3 0.00 0.00 0.00 67 1010.3
20260504171807 67 258 4.3 5.2 0.00 0.00 0.00 67 1010.3
20260504171304 66 252 4.3 5.2 0.00 0.00 0.00 67 1010.3
20260504170801 67 242 3.5 4.3 0.00 0.00 0.00 68 1010.5
20260504170258 66 210 1.7 2.6 0.00 0.00 0.00 67 1010.2
20260504160216 64 237 6.1 7.8 0.00 0.00 0.00 68 1009.9
20260504151144 62 248 3.5 4.3 0.00 0.00 0.00 68 1009.5
20260504150642 62 216 3.5 4.3 0.00 0.00 0.00 69 1009.4
20260504150138 61 299 1.7 1.7 0.00 0.00 0.00 70 1009.7
20260504141107 58 347 0.9 1.7 0.00 0.00 0.00 73 1009.2
20260504140604 58 43 0.0 0.0 0.00 0.00 0.00 74 1009.3
20260504130528 55 32 0.0 0.0 0.00 0.00 0.00 81 1009.0
20260504110415 56 44 0.0 0.9 0.00 0.00 0.00 70 1008.8
20260504100332 57 50 0.9 0.9 0.00 0.00 0.00 67 1008.6
20260504081726 57 47 0.0 0.0 0.00 0.00 0.00 70 1008.6
20260504081222 57 37 0.0 0.0 0.00 0.00 0.00 69 1008.6
20260504080719 57 42 0.0 0.0 0.00 0.00 0.00 70 1009.1
20260504080215 57 49 0.0 0.9 0.00 0.00 0.00 71 1008.6
20260504070143 60 55 0.9 0.9 0.00 0.00 0.00 61 1008.8
20260504060103 65 41 0.9 0.9 0.00 0.00 0.00 52 1008.8
20260504050531 68 38 0.0 0.0 0.00 0.00 0.00 44 1008.3
20260504045525 68 28 0.0 0.0 0.00 0.00 0.00 45 1008.4
20260504045021 68 37 0.0 0.0 0.00 0.00 0.00 46 1008.6
20260504044518 69 36 0.0 0.0 0.00 0.00 0.00 44 1008.2
20260504044015 69 25 0.9 0.9 0.00 0.00 0.00 44 1008.4
20260504043512 70 37 0.0 0.0 0.00 0.00 0.00 44 1008.5
20260504043010 70 61 0.9 0.9 0.00 0.00 0.00 43 1008.3
20260504042506 70 31 0.0 0.9 0.00 0.00 0.00 42 1008.5
20260504042003 70 48 0.9 0.9 0.00 0.00 0.00 43 1008.4
20260504041459 70 31 0.0 0.0 0.00 0.00 0.00 44 1008.6
20260504040955 70 45 0.9 0.9 0.00 0.00 0.00 43 1008.4